Wind_Speed
18 20 21 22 25 28 28 30 32 34 36 38 41 44 47 51 53 56 58 60 64 69 74 79 82 86 90 91 92 90 91 92 91 89 88 87 87 86 88 82 77 77 78 82
21 22 24 26 28 29 30 32 31 34 36 38 41 44 47 49 51 52 53 56 60 64 68 72 74 75 76 79 80 80 81 82 79 77 77 78 80 75 72 73 76 79 80 83
23 21 20 22 23 24 27 29 30 31 33 34 38 41 43 45 48 50 50 52 56 60 62 65 67 68 69 68 69 69 69 69 69 68 66 67 68 69 70 74 78 79 81 84
20 20 21 22 22 21 23 25 26 29 31 33 36 37 40 42 44 47 49 51 54 56 59 61 62 64 65 63 63 60 62 60 60 63 65 67 68 69 74 76 77 80 85 89
20 24 25 28 28 28 27 27 27 28 28 29 32 37 38 41 43 43 46 48 50 52 53 54 56 59 60 65 66 66 64 63 63 63 65 67 69 72 75 80 83 86 89 94
24 28 29 29 29 31 31 32 33 33 31 31 31 35 37 38 40 42 43 45 48 49 48 49 49 51 55 59 65 70 70 74 75 72 73 75 78 82 83 87 91 94 81 73
26 27 27 29 30 32 32 32 32 32 32 31 32 31 34 37 38 39 41 44 45 46 48 50 51 51 52 54 58 61 65 70 73 76 80 81 84 86 83 77 71 65 63 63
22 23 25 26 24 26 27 29 30 30 32 31 33 34 32 35 38 36 36 36 41 45 47 47 49 50 50 51 50 54 57 59 58 55 56 57 61 64 65 62 56 58 56 53
21 21 24 26 27 29 28 29 29 28 27 30 33 33 34 32 33 34 33 35 39 43 49 49 45 44 44 46 48 48 46 46 48 51 55 58 58 53 52 53 53 52 49 47
22 23 23 24 27 28 28 27 29 30 30 29 28 31 40 37 36 36 38 38 39 41 43 46 47 46 48 47 44 44 43 49 54 56 50 48 49 50 50 48 46 45 45 45
24 23 24 22 22 23 25 30 31 31 33 33 32 32 35 43 43 42 41 40 38 39 40 42 41 39 40 43 43 45 48 48 44 44 45 44 45 45 44 44 44 44 44 42
22 21 20 22 25 25 26 26 29 33 35 35 35 36 36 37 41 45 47 43 45 44 44 45 45 45 46 46 47 46 40 40 40 40 42 41 41 42 42 43 42 40 40 40
23 24 21 21 22 24 24 25 26 27 29 32 36 38 38 38 39 42 46 47 47 45 44 43 42 41 43 41 36 36 38 38 38 39 39 37 38 38 37 38 38 39 39 39
28 27 25 24 24 22 21 19 19 19 20 23 26 29 32 34 37 37 38 39 39 39 39 38 36 34 33 33 33 32 33 33 32 32 32 31 32 34 35 34 35 36 37 39
33 32 29 28 28 26 25 23 22 20 19 19 19 19 21 22 24 25 26 26 25 26 27 29 30 30 31 29 27 28 29 31 31 30 31 30 31 32 33 34 36 37 39 42
39 38 36 34 32 31 29 27 26 25 24 24 23 23 24 24 24 24 24 26 28 28 28 28 29 28 28 27 26 26 26 27 28 32 33 33 32 32 33 33 34 35 36 37
43 43 40 39 37 35 33 31 30 29 28 29 30 32 31 30 29 28 28 29 29 30 29 27 27 27 26 26 27 27 29 31 31 32 34 34 34 32 33 34 33 34 36 38
40 43 42 41 38 38 36 34 32 30 29 29 32 33 34 34 33 31 31 30 30 30 29 28 28 27 28 27 27 30 33 34 34 34 36 35 34 32 32 31 32 33 35 38
40 41 44 46 42 41 41 38 35 32 32 30 30 32 35 36 34 34 32 31 30 30 29 29 30 30 30 30 30 31 32 34 36 36 37 38 37 35 35 36 36 37 39 43
38 45 44 44 45 46 44 42 40 38 35 33 31 31 33 36 37 36 35 34 33 32 32 32 33 32 32 32 32 34 35 36 38 37 38 37 39 40 41 41 41 41 43 46
36 43 45 42 43 45 47 45 43 41 40 38 36 34 34 38 39 39 39 38 37 37 37 36 37 37 36 36 37 39 39 39 40 40 40 39 40 41 43 44 44 45 47 50
33 40 44 42 41 39 40 41 43 44 44 43 43 39 40 43 43 44 44 43 42 42 41 41 42 42 41 41 43 44 44 44 44 43 44 43 43 43 44 46 47 49 52 55
29 36 40 43 42 39 38 39 40 41 42 44 45 45 44 46 49 49 49 48 47 47 47 47 47 47 47 47 48 50 50 49 47 47 47 47 47 47 48 49 51 54 55 58
28 32 36 38 38 38 40 43 44 45 45 45 44 44 46 48 49 51 53 54 54 53 53 53 53 53 53 54 55 55 54 53 53 53 51 51 51 52 53 55 57 58 60 62
27 29 31 33 33 34 35 36 39 42 44 46 46 48 49 49 50 53 54 54 54 55 55 56 57 57 57 57 57 57 58 58 57 55 54 54 55 56 58 59 61 63 64 66
27 28 28 28 28 28 27 27 30 34 38 40 43 46 49 51 53 53 54 54 56 58 59 61 60 61 61 62 62 61 60 59 57 57 57 57 59 61 62 64 65 66 68 69
27 26 26 26 25 24 25 26 26 27 29 31 35 38 42 45 49 53 55 56 57 57 57 57 56 58 58 59 59 59 58 58 59 60 61 62 64 66 67 68 69 70 70 68
Wind_Direction
147 158 173 184 193 203 209 214 217 221 221 220 222 223 222 225 227 227 228 228 228 229 231 233 237 240 242 244 248 251 254 257 260 262 264 265 266 268 272 278 279 279 279 282
146 159 168 175 178 186 193 200 204 209 212 214 215 217 218 220 223 225 226 226 226 228 230 233 236 239 242 244 246 249 253 255 258 260 259 262 266 270 273 274 277 276 280 280
149 153 158 166 171 182 192 200 205 208 212 216 217 218 219 219 220 221 223 225 227 227 229 232 235 238 239 244 248 251 253 255 257 258 262 266 270 271 270 272 277 278 276 278
163 168 175 183 185 192 197 207 205 212 213 214 217 219 219 219 220 221 222 224 225 228 230 231 233 235 237 238 243 247 250 253 255 257 261 266 266 265 267 269 271 273 277 280
190 189 192 195 197 199 200 205 208 217 215 216 218 221 221 220 220 222 225 224 226 229 231 233 234 235 236 235 238 244 251 253 255 258 258 258 259 262 265 268 273 276 279 283
208 207 201 205 207 207 209 211 214 219 220 217 220 221 221 223 222 221 223 226 227 228 230 232 234 236 239 240 242 245 248 251 253 256 257 260 261 265 270 272 276 280 282 283
218 223 222 218 218 215 214 217 222 225 227 224 219 222 221 223 221 223 224 225 227 228 229 231 237 239 242 245 246 249 249 250 254 257 259 262 266 269 272 273 275 279 278 281
219 223 227 227 226 227 228 224 222 223 226 227 222 222 219 222 225 223 227 228 230 231 233 238 238 240 244 249 249 251 255 258 261 264 264 266 267 269 272 275 274 275 278 280
221 221 223 222 222 222 227 223 219 218 220 223 225 223 224 221 218 223 228 229 231 232 236 241 245 247 247 253 254 258 258 259 262 264 267 268 271 270 271 273 275 275 277 282
229 227 222 219 219 221 222 220 218 218 220 223 226 221 219 223 217 222 229 234 234 235 238 240 244 247 252 255 253 256 261 264 265 268 267 266 268 271 272 273 273 275 278 282
230 231 231 228 225 220 221 223 220 220 221 224 224 226 222 220 222 223 230 236 235 236 238 242 244 245 247 251 256 262 265 266 263 266 268 270 272 272 270 272 274 275 278 282
228 231 233 228 228 227 224 223 225 226 224 225 225 224 223 225 227 227 232 233 235 237 239 241 241 243 246 252 258 262 258 260 263 269 272 272 271 269 271 271 273 274 278 281
224 232 235 225 224 224 225 225 224 226 228 230 231 230 229 228 229 231 234 237 241 244 241 243 244 247 255 255 249 251 255 260 268 273 274 276 275 271 271 271 271 276 279 282
222 228 229 224 220 218 216 216 217 218 221 225 230 232 234 236 238 239 241 243 244 243 242 241 240 238 238 242 248 253 259 270 268 270 276 280 278 273 271 272 275 278 281 281
222 227 228 228 225 223 221 221 222 221 220 221 220 220 219 218 220 221 224 223 219 219 222 225 230 236 241 244 250 258 268 273 274 275 279 283 284 281 279 278 278 279 280 283
223 226 228 228 230 227 227 229 232 235 235 232 232 230 228 225 223 221 228 234 234 231 231 234 239 237 238 246 256 265 272 279 283 282 281 285 289 289 285 284 285 286 286 286
233 231 232 232 229 231 233 239 243 243 243 243 241 240 239 234 234 240 236 230 228 231 231 233 235 238 242 250 258 266 272 276 281 288 288 282 285 288 286 285 286 286 287 289
241 244 241 238 238 234 238 243 246 246 246 249 248 243 238 236 238 234 225 228 230 230 230 229 234 239 246 252 261 267 271 275 278 284 290 281 281 286 288 288 290 291 292 294
245 239 241 240 240 238 239 242 246 247 248 252 252 247 241 238 236 226 224 225 225 227 231 233 237 242 249 256 262 268 275 277 278 280 288 280 276 281 285 288 290 292 295 297
240 234 235 238 239 240 242 242 245 247 250 252 256 250 238 233 225 226 227 229 231 232 234 239 244 249 255 260 266 270 275 278 280 277 282 280 277 280 284 286 290 293 297 300
239 232 231 235 238 240 243 245 246 247 247 249 251 249 236 227 227 231 231 233 234 237 239 244 250 256 259 264 267 270 274 278 280 277 278 281 279 279 283 286 290 294 297 300
238 230 232 234 238 240 243 247 250 251 251 250 248 247 240 234 234 234 236 238 240 243 246 250 254 259 264 266 268 272 275 277 281 280 277 279 282 283 284 286 290 294 297 300
236 231 232 237 241 244 246 247 247 247 248 249 246 244 243 242 240 241 243 244 246 249 252 254 258 261 265 266 269 272 275 278 280 280 278 279 282 285 287 289 291 293 296 299
236 235 237 242 246 246 246 248 249 249 247 246 247 247 246 246 246 247 248 249 249 251 254 257 260 263 265 267 270 272 274 277 279 280 278 278 281 284 287 288 290 293 296 298
238 240 243 247 251 253 253 252 251 250 249 248 246 245 246 246 247 247 249 252 254 256 257 258 260 263 265 268 270 272 274 276 278 277 277 279 281 284 286 289 291 294 297 299
241 242 245 248 250 253 255 255 254 250 247 246 247 247 247 247 247 248 249 250 252 254 257 258 260 262 264 266 268 270 272 273 274 275 276 279 281 283 285 288 290 292 295 297
239 242 246 250 253 256 258 258 255 251 247 248 248 249 251 252 253 252 251 250 251 253 256 258 259 260 261 263 265 266 268 270 273 275 277 279 281 283 285 287 289 291 293 296
Height
10348 10353 10359 10367 10374 10380 10388 10396 10399 10403 10408 10413 10418 10424 10433 10442 10452 10459 10468 10478 10487 10496 10506 10515 10523 10533 10541 10550 10556 10563 10566 10571 10575 10578 10581 10582 10582 10581 10581 10581 10578 10573 10570 10566
10352 10357 10362 10368 10373 10379 10384 10388 10392 10396 10400 10405 10410 10416 10424 10432 10441 10450 10458 10465 10473 10482 10492 10501 10511 10519 10527 10534 10541 10547 10551 10555 10559 10562 10563 10564 10566 10567 10567 10565 10561 10556 10554 10550
10354 10358 10362 10367 10372 10375 10379 10383 10387 10390 10395 10400 10406 10412 10419 10426 10433 10440 10448 10456 10464 10473 10482 10491 10500 10507 10515 10520 10524 10530 10535 10539 10543 10546 10548 10549 10551 10551 10550 10547 10544 10542 10538 10535
10353 10358 10362 10364 10368 10373 10376 10380 10383 10386 10391 10396 10401 10407 10414 10419 10426 10433 10439 10447 10455 10464 10472 10479 10487 10495 10502 10508 10512 10518 10523 10527 10531 10533 10535 10536 10536 10535 10533 10531 10529 10526 10523 10518
10350 10354 10358 10362 10365 10369 10373 10376 10379 10382 10387 10392 10396 10400 10407 10413 10419 10426 10432 10440 10447 10455 10462 10470 10477 10484 10490 10496 10503 10508 10512 10516 10518 10519 10520 10520 10519 10519 10517 10516 10514 10510 10505 10500
10347 10349 10353 10357 10360 10364 10367 10371 10374 10377 10381 10386 10390 10395 10401 10407 10413 10419 10425 10432 10440 10447 10454 10461 10467 10473 10479 10485 10490 10495 10499 10501 10503 10504 10504 10504 10503 10504 10503 10499 10496 10493 10487 10483
10342 10345 10350 10352 10355 10358 10361 10366 10370 10373 10376 10381 10385 10391 10396 10402 10407 10413 10419 10426 10432 10439 10446 10452 10458 10464 10470 10474 10478 10482 10486 10487 10488 10488 10488 10489 10489 10488 10485 10481 10479 10476 10472 10468
10338 10342 10344 10347 10352 10356 10358 10361 10365 10368 10372 10376 10380 10385 10391 10396 10402 10407 10413 10419 10425 10432 10438 10443 10449 10454 10459 10463 10466 10468 10471 10473 10473 10473 10473 10472 10471 10469 10468 10466 10463 10460 10458 10454
10335 10337 10340 10343 10346 10350 10353 10357 10360 10364 10367 10371 10375 10381 10386 10391 10396 10401 10407 10413 10419 10424 10429 10434 10439 10444 10448 10451 10453 10455 10457 10459 10459 10459 10459 10457 10456 10453 10451 10450 10449 10447 10445 10441
10331 10334 10336 10339 10342 10346 10349 10353 10356 10359 10363 10367 10370 10375 10380 10385 10390 10396 10400 10406 10411 10416 10421 10426 10431 10435 10438 10440 10442 10444 10446 10447 10446 10446 10444 10443 10442 10440 10439 10437 10436 10434 10432 10428
10326 10329 10331 10334 10337 10340 10344 10347 10350 10354 10358 10362 10366 10369 10373 10378 10383 10388 10393 10398 10403 10408 10412 10417 10421 10425 10427 10430 10432 10434 10435 10434 10434 10433 10432 10431 10429 10428 10427 10425 10423 10421 10419 10416
10322 10325 10327 10330 10332 10335 10338 10341 10344 10348 10352 10356 10360 10364 10368 10372 10377 10381 10386 10390 10395 10399 10403 10407 10411 10414 10417 10420 10422 10423 10423 10424 10423 10422 10421 10419 10418 10416 10414 10413 10411 10409 10407 10404
10319 10320 10323 10326 10328 10330 10333 10336 10339 10343 10346 10349 10353 10357 10360 10365 10369 10373 10377 10381 10386 10390 10393 10397 10401 10404 10407 10409 10411 10413 10414 10414 10412 10411 10409 10407 10405 10403 10401 10400 10398 10397 10395 10393
10313 10315 10319 10322 10323 10326 10328 10331 10333 10336 10340 10343 10346 10350 10353 10357 10361 10365 10369 10372 10376 10379 10383 10387 10391 10394 10398 10400 10403 10404 10404 10403 10402 10400 10398 10396 10394 10392 10390 10389 10387 10385 10383 10381
10306 10309 10313 10315 10318 10321 10324 10326 10329 10332 10335 10338 10341 10344 10347 10350 10354 10358 10361 10365 10369 10373 10376 10380 10383 10387 10390 10392 10394 10395 10394 10393 10391 10390 10388 10386 10383 10381 10379 10378 10376 10374 10372 10370
10298 10301 10304 10307 10311 10315 10318 10321 10324 10328 10331 10334 10337 10340 10343 10347 10350 10353 10357 10360 10363 10366 10369 10373 10376 10379 10382 10384 10385 10385 10385 10384 10382 10380 10378 10376 10374 10371 10369 10367 10366 10363 10361 10359
10290 10292 10295 10299 10304 10308 10312 10316 10319 10323 10326 10329 10332 10334 10337 10341 10344 10347 10350 10352 10356 10359 10362 10366 10369 10372 10374 10375 10376 10376 10376 10375 10373 10371 10368 10366 10364 10362 10360 10358 10356 10354 10352 10349
10282 10286 10290 10293 10298 10303 10306 10309 10313 10316 10319 10321 10324 10327 10330 10333 10336 10339 10343 10345 10348 10352 10356 10359 10361 10363 10365 10366 10367 10367 10366 10365 10364 10362 10359 10357 10355 10352 10350 10348 10346 10344 10341 10338
10272 10278 10282 10286 10291 10294 10298 10302 10305 10308 10310 10312 10315 10317 10321 10324 10328 10331 10335 10338 10341 10345 10348 10350 10352 10354 10355 10356 10357 10356 10355 10354 10353 10351 10349 10346 10344 10343 10340 10338 10336 10333 10330 10326
10260 10264 10269 10275 10281 10285 10288 10292 10296 10299 10302 10304 10306 10308 10311 10315 10319 10323 10327 10331 10334 10337 10339 10341 10342 10344 10345 10346 10346 10346 10345 10343 10342 10340 10338 10335 10333 10331 10329 10326 10323 10321 10317 10313
10249 10253 10258 10264 10269 10273 10277 10282 10286 10289 10292 10295 10297 10300 10303 10306 10310 10314 10318 10322 10325 10327 10330 10331 10332 10333 10335 10335 10335 10334 10333 10332 10330 10328 10326 10324 10322 10319 10317 10314 10311 10308 10304 10299
10240 10244 10249 10255 10258 10262 10268 10272 10275 10278 10281 10284 10287 10290 10294 10297 10301 10304 10307 10311 10314 10316 10319 10320 10321 10322 10323 10323 10322 10321 10320 10319 10318 10316 10313 10311 10310 10307 10304 10301 10297 10294 10290 10285
10234 10238 10242 10245 10249 10254 10257 10260 10263 10265 10268 10271 10274 10278 10282 10285 10289 10292 10296 10298 10302 10303 10305 10307 10308 10309 10310 10309 10308 10307 10307 10306 10305 10302 10299 10298 10296 10293 10290 10287 10283 10279 10275 10271
10227 10230 10234 10237 10240 10243 10246 10248 10250 10252 10255 10258 10261 10264 10268 10272 10275 10278 10281 10283 10287 10289 10291 10293 10294 10294 10294 10294 10293 10293 10292 10291 10289 10287 10285 10283 10281 10278 10274 10271 10267 10264 10260 10255
10219 10222 10225 10227 10230 10232 10234 10235 10236 10238 10241 10244 10247 10250 10254 10256 10259 10262 10265 10268 10270 10273 10275 10277 10278 10278 10278 10278 10278 10277 10276 10275 10273 10271 10269 10267 10265 10262 10259 10255 10251 10247 10243 10239
10212 10215 10217 10219 10220 10222 10223 10224 10225 10226 10228 10230 10233 10236 10238 10241 10244 10246 10249 10251 10253 10256 10257 10259 10261 10261 10261 10260 10260 10260 10259 10258 10256 10255 10253 10251 10248 10245 10243 10240 10236 10232 10228 10223
10204 10207 10209 10211 10212 10213 10214 10215 10216 10217 10217 10219 10221 10223 10225 10227 10229 10231 10233 10235 10237 10239 10240 10241 10243 10243 10242 10242 10242 10242 10242 10241 10240 10238 10237 10234 10232 10229 10226 10223 10219 10215 10211 10205